Time,TemperatureF,DewpointF,PressureIn,WindDirection,WindDirectionDegrees,WindSpeedMPH,WindSpeedGustMPH,Humidity,HourlyPrecipIn,Conditions,Clouds,dailyrainin,SoftwareType,DateUTC
2013-12-24 00:08:00,48.6,48.0,30.11,NNW,333,0.0,1.0,96,0.00,,,0.00,weatherlink.com 1.10,2013-12-24 05:08:00,
2013-12-24 00:23:00,48.3,47.0,30.12,ENE,67,4.0,9.0,96,0.00,,,0.00,weatherlink.com 1.10,2013-12-24 05:23:00,
2013-12-24 00:39:00,46.6,45.0,30.12,ENE,61,10.0,13.0,95,0.01,,,0.01,weatherlink.com 1.10,2013-12-24 05:39:00,
2013-12-24 00:54:00,45.8,45.0,30.12,ENE,71,3.0,10.0,95,0.01,,,0.01,weatherlink.com 1.10,2013-12-24 05:54:00,
2013-12-24 01:09:00,45.2,44.0,30.12,ENE,63,7.0,13.0,96,0.01,,,0.01,weatherlink.com 1.10,2013-12-24 06:09:00,
2013-12-24 01:24:00,44.6,43.0,30.12,NNE,24,2.0,6.0,94,0.01,,,0.01,weatherlink.com 1.10,2013-12-24 06:24:00,
2013-12-24 01:39:00,44.3,42.0,30.12,NNE,15,0.0,9.0,92,0.00,,,0.01,weatherlink.com 1.10,2013-12-24 06:39:00,
2013-12-24 01:54:00,43.7,41.0,30.13,ENE,71,7.0,7.0,90,0.00,,,0.01,weatherlink.com 1.10,2013-12-24 06:54:00,
2013-12-24 02:09:00,43.4,41.0,30.13,NE,45,0.0,6.0,90,0.00,,,0.01,weatherlink.com 1.10,2013-12-24 07:09:00,
2013-12-24 02:24:00,43.2,41.0,30.13,ENE,59,0.0,5.0,90,0.00,,,0.01,weatherlink.com 1.10,2013-12-24 07:24:00,
2013-12-24 02:39:00,43.0,40.0,30.14,North,10,0.0,4.0,90,0.00,,,0.01,weatherlink.com 1.10,2013-12-24 07:39:00,
2013-12-24 02:54:00,42.8,40.0,30.14,ENE,66,0.0,6.0,90,0.00,,,0.01,weatherlink.com 1.10,2013-12-24 07:54:00,
2013-12-24 03:09:00,42.4,39.0,30.14,ENE,64,3.0,9.0,87,0.00,,,0.01,weatherlink.com 1.10,2013-12-24 08:09:00,
2013-12-24 03:24:00,42.0,38.0,30.14,ENE,69,0.0,7.0,87,0.00,,,0.01,weatherlink.com 1.10,2013-12-24 08:24:00,
2013-12-24 03:39:00,41.8,38.0,30.14,NE,53,0.0,5.0,85,0.00,,,0.01,weatherlink.com 1.10,2013-12-24 08:39:00,
2013-12-24 03:54:00,41.6,38.0,30.14,NE,53,0.0,3.0,86,0.00,,,0.01,weatherlink.com 1.10,2013-12-24 08:54:00,
2013-12-24 04:09:00,41.4,38.0,30.14,NNE,24,2.0,6.0,86,0.00,,,0.01,weatherlink.com 1.10,2013-12-24 09:09:00,
2013-12-24 04:24:00,41.1,37.0,30.14,ENE,64,0.0,7.0,85,0.00,,,0.01,weatherlink.com 1.10,2013-12-24 09:24:00,
2013-12-24 04:39:00,40.7,36.0,30.13,NE,56,1.0,6.0,84,0.00,,,0.01,weatherlink.com 1.10,2013-12-24 09:39:00,
2013-12-24 04:54:00,40.3,36.0,30.13,NE,42,2.0,7.0,83,0.00,,,0.01,weatherlink.com 1.10,2013-12-24 09:54:00,
2013-12-24 05:09:00,40.1,36.0,30.14,NNW,335,0.0,5.0,86,0.00,,,0.01,weatherlink.com 1.10,2013-12-24 10:09:00,
2013-12-24 05:24:00,39.8,35.0,30.14,North,351,4.0,9.0,84,0.00,,,0.01,weatherlink.com 1.10,2013-12-24 10:24:00,
2013-12-24 05:39:00,39.5,34.0,30.14,NW,309,3.0,7.0,82,0.00,,,0.01,weatherlink.com 1.10,2013-12-24 10:39:00,
2013-12-24 05:54:00,38.9,33.0,30.15,NNW,331,4.0,11.0,80,0.00,,,0.01,weatherlink.com 1.10,2013-12-24 10:54:00,
2013-12-24 06:09:00,38.6,32.0,30.15,NNW,327,0.0,7.0,77,0.00,,,0.01,weatherlink.com 1.10,2013-12-24 11:09:00,
2013-12-24 06:24:00,38.1,32.0,30.17,NW,313,2.0,6.0,80,0.00,,,0.01,weatherlink.com 1.10,2013-12-24 11:24:00,
2013-12-24 06:39:00,37.7,32.0,30.18,NNW,338,0.0,8.0,80,0.00,,,0.01,weatherlink.com 1.10,2013-12-24 11:39:00,
2013-12-24 06:54:00,37.1,31.0,30.18,NNW,330,0.0,4.0,80,0.00,,,0.01,weatherlink.com 1.10,2013-12-24 11:54:00,
2013-12-24 07:10:00,36.6,31.0,30.18,NNW,330,0.0,5.0,81,0.00,,,0.01,weatherlink.com 1.10,2013-12-24 12:10:00,
2013-12-24 07:25:00,36.4,31.0,30.20,NW,321,0.0,4.0,80,0.00,,,0.01,weatherlink.com 1.10,2013-12-24 12:25:00,
2013-12-24 07:40:00,36.2,31.0,30.19,NW,322,0.0,2.0,82,0.00,,,0.01,weatherlink.com 1.10,2013-12-24 12:40:00,
2013-12-24 07:55:00,36.0,31.0,30.20,NW,321,2.0,4.0,82,0.00,,,0.01,weatherlink.com 1.10,2013-12-24 12:55:00,
2013-12-24 08:10:00,35.9,32.0,30.21,NW,317,3.0,5.0,84,0.00,,,0.01,weatherlink.com 1.10,2013-12-24 13:10:00,
2013-12-24 08:25:00,36.3,32.0,30.22,NW,319,4.0,8.0,83,0.00,,,0.01,weatherlink.com 1.10,2013-12-24 13:25:00,
2013-12-24 08:40:00,37.5,32.0,30.22,North,355,7.0,7.0,79,0.00,,,0.01,weatherlink.com 1.10,2013-12-24 13:40:00,
2013-12-24 08:55:00,37.4,31.0,30.23,NNW,336,0.0,11.0,78,0.00,,,0.01,weatherlink.com 1.10,2013-12-24 13:55:00,
2013-12-24 09:10:00,37.4,31.0,30.24,NW,325,3.0,6.0,78,0.00,,,0.01,weatherlink.com 1.10,2013-12-24 14:10:00,
2013-12-24 09:25:00,37.6,31.0,30.24,North,350,1.0,6.0,76,0.00,,,0.01,weatherlink.com 1.10,2013-12-24 14:25:00,
2013-12-24 09:40:00,38.2,31.0,30.24,NNE,20,2.0,11.0,75,0.01,,,0.02,weatherlink.com 1.10,2013-12-24 14:40:00,
2013-12-24 09:55:00,38.4,31.0,30.24,North,5,0.0,8.0,74,0.01,,,0.02,weatherlink.com 1.10,2013-12-24 14:55:00,
2013-12-24 10:10:00,38.2,31.0,30.24,NNW,343,5.0,9.0,74,0.01,,,0.02,weatherlink.com 1.10,2013-12-24 15:10:00,
2013-12-24 10:25:00,38.7,30.0,30.24,NNW,327,8.0,10.0,72,0.01,,,0.02,weatherlink.com 1.10,2013-12-24 15:25:00,
2013-12-24 10:40:00,39.2,32.0,30.24,North,360,0.0,8.0,74,0.00,,,0.02,weatherlink.com 1.10,2013-12-24 15:40:00,
2013-12-24 10:55:00,39.8,32.0,30.24,NW,311,0.0,9.0,74,0.00,,,0.02,weatherlink.com 1.10,2013-12-24 15:55:00,
2013-12-24 11:10:00,40.6,32.0,30.24,NW,325,2.0,11.0,72,0.00,,,0.02,weatherlink.com 1.10,2013-12-24 16:10:00,
2013-12-24 11:25:00,40.7,32.0,30.24,NNW,341,2.0,9.0,70,0.00,,,0.02,weatherlink.com 1.10,2013-12-24 16:25:00,
2013-12-24 11:40:00,41.2,31.0,30.23,WNW,297,3.0,10.0,68,0.00,,,0.02,weatherlink.com 1.10,2013-12-24 16:40:00,
2013-12-24 11:55:00,41.3,33.0,30.23,NW,325,6.0,12.0,71,0.00,,,0.02,weatherlink.com 1.10,2013-12-24 16:55:00,
2013-12-24 12:10:00,40.8,32.0,30.23,WNW,288,3.0,11.0,71,0.00,,,0.02,weatherlink.com 1.10,2013-12-24 17:10:00,
2013-12-24 12:25:00,41.2,32.0,30.23,WNW,303,5.0,14.0,70,0.00,,,0.02,weatherlink.com 1.10,2013-12-24 17:25:00,
2013-12-24 12:40:00,42.2,33.0,30.22,NNW,334,2.0,12.0,69,0.00,,,0.02,weatherlink.com 1.10,2013-12-24 17:40:00,
2013-12-24 12:55:00,42.9,33.0,30.21,NW,326,5.0,9.0,67,0.00,,,0.02,weatherlink.com 1.10,2013-12-24 17:55:00,
2013-12-24 13:10:00,44.3,34.0,30.22,NW,321,7.0,7.0,67,0.00,,,0.02,weatherlink.com 1.10,2013-12-24 18:10:00,
2013-12-24 13:25:00,43.5,32.0,30.22,NNW,342,8.0,14.0,64,0.00,,,0.02,weatherlink.com 1.10,2013-12-24 18:25:00,
2013-12-24 13:40:00,43.3,30.0,30.22,WNW,300,4.0,12.0,60,0.00,,,0.02,weatherlink.com 1.10,2013-12-24 18:40:00,
2013-12-24 13:55:00,44.5,30.0,30.22,NW,305,2.0,12.0,57,0.00,,,0.02,weatherlink.com 1.10,2013-12-24 18:55:00,
2013-12-24 14:10:00,43.6,30.0,30.23,NW,309,8.0,9.0,58,0.00,,,0.02,weatherlink.com 1.10,2013-12-24 19:10:00,
2013-12-24 14:25:00,43.5,30.0,30.22,NNW,342,9.0,13.0,59,0.00,,,0.02,weatherlink.com 1.10,2013-12-24 19:25:00,
2013-12-24 14:40:00,44.3,31.0,30.23,NW,317,1.0,17.0,59,0.00,,,0.02,weatherlink.com 1.10,2013-12-24 19:40:00,
2013-12-24 14:55:00,44.5,29.0,30.22,NNW,336,3.0,15.0,55,0.00,,,0.02,weatherlink.com 1.10,2013-12-24 19:55:00,
2013-12-24 15:10:00,44.5,29.0,30.23,West,267,3.0,17.0,55,0.00,,,0.02,weatherlink.com 1.10,2013-12-24 20:10:00,
2013-12-24 15:25:00,44.9,29.0,30.24,NW,306,9.0,10.0,54,0.00,,,0.02,weatherlink.com 1.10,2013-12-24 20:25:00,
2013-12-24 15:40:00,43.1,27.0,30.25,NW,314,5.0,10.0,54,0.00,,,0.02,weatherlink.com 1.10,2013-12-24 20:40:00,
2013-12-24 15:55:00,42.5,27.0,30.25,NW,307,7.0,15.0,54,0.00,,,0.02,weatherlink.com 1.10,2013-12-24 20:55:00,
2013-12-24 16:10:00,42.2,26.0,30.26,NNW,328,5.0,10.0,54,0.00,,,0.02,weatherlink.com 1.10,2013-12-24 21:10:00,
2013-12-24 16:25:00,41.9,26.0,30.26,NNW,335,3.0,8.0,54,0.00,,,0.02,weatherlink.com 1.10,2013-12-24 21:25:00,
2013-12-24 16:40:00,41.4,27.0,30.27,NW,317,0.0,4.0,56,0.00,,,0.02,weatherlink.com 1.10,2013-12-24 21:40:00,
2013-12-24 16:55:00,40.9,25.0,30.28,WNW,294,8.0,12.0,53,0.00,,,0.02,weatherlink.com 1.10,2013-12-24 21:55:00,
2013-12-24 17:10:00,40.5,24.0,30.28,NNW,327,0.0,8.0,53,0.00,,,0.02,weatherlink.com 1.10,2013-12-24 22:10:00,
2013-12-24 17:25:00,39.8,24.0,30.29,NW,304,3.0,5.0,54,0.00,,,0.02,weatherlink.com 1.10,2013-12-24 22:25:00,
2013-12-24 17:40:00,39.0,24.0,30.29,NNW,327,0.0,7.0,56,0.00,,,0.02,weatherlink.com 1.10,2013-12-24 22:40:00,
2013-12-24 17:55:00,37.4,28.0,30.30,NNW,327,0.0,0.0,69,0.00,,,0.02,weatherlink.com 1.10,2013-12-24 22:55:00,
2013-12-24 18:10:00,36.9,25.0,30.31,NNW,327,0.0,3.0,63,0.00,,,0.02,weatherlink.com 1.10,2013-12-24 23:10:00,
2013-12-24 18:25:00,37.1,24.0,30.32,NNW,338,7.0,11.0,60,0.00,,,0.02,weatherlink.com 1.10,2013-12-24 23:25:00,
2013-12-24 18:40:00,38.2,24.0,30.32,NW,317,3.0,11.0,56,0.00,,,0.02,weatherlink.com 1.10,2013-12-24 23:40:00,
2013-12-24 18:56:00,37.9,22.0,30.34,NNW,341,9.0,14.0,54,0.00,,,0.02,weatherlink.com 1.10,2013-12-24 23:56:00,
2013-12-24 19:11:00,37.3,22.0,30.34,WNW,296,4.0,10.0,55,0.00,,,0.02,weatherlink.com 1.10,2013-12-25 00:11:00,
2013-12-24 19:26:00,36.5,21.0,30.35,NW,313,6.0,13.0,53,0.00,,,0.02,weatherlink.com 1.10,2013-12-25 00:26:00,
2013-12-24 19:41:00,35.9,20.0,30.37,WNW,301,1.0,13.0,52,0.00,,,0.02,weatherlink.com 1.10,2013-12-25 00:41:00,
2013-12-24 19:56:00,35.2,19.0,30.37,NW,311,3.0,13.0,51,0.00,,,0.02,weatherlink.com 1.10,2013-12-25 00:56:00,
2013-12-24 20:11:00,34.8,18.0,30.38,NNW,331,2.0,9.0,50,0.00,,,0.02,weatherlink.com 1.10,2013-12-25 01:11:00,
2013-12-24 20:26:00,34.4,18.0,30.38,NW,311,6.0,10.0,51,0.00,,,0.02,weatherlink.com 1.10,2013-12-25 01:26:00,
2013-12-24 20:41:00,34.0,17.0,30.39,NW,311,2.0,11.0,51,0.00,,,0.02,weatherlink.com 1.10,2013-12-25 01:41:00,
2013-12-24 20:56:00,33.7,17.0,30.39,NW,320,2.0,15.0,50,0.00,,,0.02,weatherlink.com 1.10,2013-12-25 01:56:00,
2013-12-24 21:11:00,33.3,17.0,30.40,NW,306,7.0,14.0,51,0.00,,,0.02,weatherlink.com 1.10,2013-12-25 02:11:00,
2013-12-24 21:26:00,32.8,16.0,30.40,WNW,298,3.0,14.0,51,0.00,,,0.02,weatherlink.com 1.10,2013-12-25 02:26:00,
2013-12-24 21:41:00,32.4,16.0,30.41,NW,318,2.0,9.0,52,0.00,,,0.02,weatherlink.com 1.10,2013-12-25 02:41:00,
2013-12-24 21:56:00,31.9,16.0,30.41,NW,325,7.0,11.0,53,0.00,,,0.02,weatherlink.com 1.10,2013-12-25 02:56:00,
2013-12-24 22:11:00,31.7,17.0,30.42,NW,325,2.0,11.0,54,0.00,,,0.02,weatherlink.com 1.10,2013-12-25 03:11:00,
2013-12-24 22:26:00,31.3,17.0,30.43,NNW,342,2.0,5.0,55,0.00,,,0.02,weatherlink.com 1.10,2013-12-25 03:26:00,
2013-12-24 22:41:00,31.1,16.0,30.43,NNW,333,1.0,10.0,54,0.00,,,0.02,weatherlink.com 1.10,2013-12-25 03:41:00,
2013-12-24 22:56:00,30.7,16.0,30.43,NW,326,6.0,7.0,54,0.00,,,0.02,weatherlink.com 1.10,2013-12-25 03:56:00,
2013-12-24 23:11:00,30.5,16.0,30.43,NNW,336,0.0,7.0,54,0.00,,,0.02,weatherlink.com 1.10,2013-12-25 04:11:00,
2013-12-24 23:26:00,30.1,15.0,30.43,NW,315,0.0,7.0,54,0.00,,,0.02,weatherlink.com 1.10,2013-12-25 04:26:00,
2013-12-24 23:41:00,29.7,15.0,30.44,NW,316,0.0,6.0,55,0.00,,,0.02,weatherlink.com 1.10,2013-12-25 04:41:00,
2013-12-24 23:56:00,29.3,15.0,30.44,NNW,333,2.0,6.0,56,0.00,,,0.02,weatherlink.com 1.10,2013-12-25 04:56:00,